contact:dominique.lefevre@mio.osupytheas.fr, maurice.libes@osupytheas.fr, didier.mallarino@osupytheas.fr
Project:EMSO http://www.emso-fr.org/EMSO-France
Depth: 2436.0 m
Title:EMSO Ligure Ouest : Data MII capteur MICROCAT
DateTime_Computer,Latitude,Longitude,Temperature,Conductivity,Pressure,DateTime_Instrument
DateTime_Computer,Latitude,Longitude,degC,S m-1,dbar,DateTime_Instrument
2020-02-14T00:01:18Z,42.805,6.029,13.2968,4.59979,2470.063,2020-2-14T02:01:52Z
2020-02-14T00:04:21Z,42.805,6.029,13.2971,4.59975,2470.03,2020-2-14T02:04:56Z
2020-02-14T00:07:24Z,42.805,6.029,13.2970,4.59975,2470.03,2020-2-14T02:07:59Z
2020-02-14T00:10:27Z,42.805,6.029,13.2972,4.59974,2470.04,2020-2-14T02:11:02Z
2020-02-14T00:13:30Z,42.805,6.029,13.2970,4.59974,2470.053,2020-2-14T02:14:05Z
2020-02-14T00:16:34Z,42.805,6.029,13.2971,4.59973,2470.017,2020-2-14T02:17:08Z
2020-02-14T00:19:37Z,42.805,6.029,13.2971,4.59973,2469.993,2020-2-14T02:20:12Z
2020-02-14T00:22:40Z,42.805,6.029,13.2966,4.59977,2470.03,2020-2-14T02:23:15Z
2020-02-14T00:25:43Z,42.805,6.029,13.2972,4.59973,2470.04,2020-2-14T02:26:18Z
2020-02-14T00:28:47Z,42.805,6.029,13.2972,4.59976,2470.053,2020-2-14T02:29:21Z
2020-02-14T00:31:50Z,42.805,6.029,13.2971,4.59974,2469.993,2020-2-14T02:32:25Z
2020-02-14T00:34:53Z,42.805,6.029,13.2967,4.59975,2470.03,2020-2-14T02:35:28Z
2020-02-14T00:37:56Z,42.805,6.029,13.2967,4.59974,2470.007,2020-2-14T02:38:31Z
2020-02-14T00:41:00Z,42.805,6.029,13.2967,4.59976,2470.017,2020-2-14T02:41:34Z
2020-02-14T00:44:03Z,42.805,6.029,13.2968,4.59976,2470.03,2020-2-14T02:44:37Z
2020-02-14T00:47:06Z,42.805,6.029,13.2966,4.59974,2470.017,2020-2-14T02:47:41Z
2020-02-14T00:50:09Z,42.805,6.029,13.2968,4.59973,2470.017,2020-2-14T02:50:44Z
2020-02-14T00:53:12Z,42.805,6.029,13.2972,4.59972,2470.03,2020-2-14T02:53:47Z
2020-02-14T00:56:16Z,42.805,6.029,13.2971,4.59976,2469.97,2020-2-14T02:56:50Z
2020-02-14T00:59:19Z,42.805,6.029,13.2967,4.59976,2470.03,2020-2-14T02:59:54Z
2020-02-14T01:02:22Z,42.805,6.029,13.2968,4.59974,2469.97,2020-2-14T03:02:57Z
2020-02-14T01:05:25Z,42.805,6.029,13.2968,4.59976,2469.993,2020-2-14T03:06:00Z
2020-02-14T01:08:28Z,42.805,6.029,13.2968,4.59975,2469.984,2020-2-14T03:09:03Z
2020-02-14T01:11:31Z,42.805,6.029,13.2965,4.59973,2469.97,2020-2-14T03:12:06Z
2020-02-14T01:14:35Z,42.805,6.029,13.2964,4.59973,2469.97,2020-2-14T03:15:09Z
2020-02-14T01:17:38Z,42.805,6.029,13.2971,4.59973,2470.007,2020-2-14T03:18:13Z
2020-02-14T01:20:41Z,42.805,6.029,13.2971,4.59974,2469.97,2020-2-14T03:21:16Z
2020-02-14T01:23:44Z,42.805,6.029,13.2970,4.59973,2469.97,2020-2-14T03:24:19Z
2020-02-14T01:26:47Z,42.805,6.029,13.2970,4.59973,2469.97,2020-2-14T03:27:22Z
2020-02-14T01:29:51Z,42.805,6.029,13.2968,4.59972,2469.984,2020-2-14T03:30:25Z
2020-02-14T01:32:54Z,42.805,6.029,13.2973,4.59974,2469.993,2020-2-14T03:33:29Z
2020-02-14T01:35:57Z,42.805,6.029,13.2968,4.59973,2469.984,2020-2-14T03:36:32Z
2020-02-14T01:39:00Z,42.805,6.029,13.2968,4.59972,2469.97,2020-2-14T03:39:35Z
2020-02-14T01:42:04Z,42.805,6.029,13.2964,4.59973,2469.947,2020-2-14T03:42:38Z
2020-02-14T01:45:07Z,42.805,6.029,13.2966,4.59971,2470.007,2020-2-14T03:45:42Z
2020-02-14T01:48:10Z,42.805,6.029,13.2966,4.59973,2469.97,2020-2-14T03:48:45Z
2020-02-14T01:51:13Z,42.805,6.029,13.2966,4.59971,2470.007,2020-2-14T03:51:48Z
2020-02-14T01:54:16Z,42.805,6.029,13.2964,4.59971,2469.97,2020-2-14T03:54:51Z
2020-02-14T01:57:20Z,42.805,6.029,13.2968,4.59970,2469.97,2020-2-14T03:57:54Z
2020-02-14T02:00:23Z,42.805,6.029,13.2968,4.59973,2469.97,2020-2-14T04:00:58Z
2020-02-14T02:03:26Z,42.805,6.029,13.2968,4.59972,2469.937,2020-2-14T04:04:01Z
2020-02-14T02:06:29Z,42.805,6.029,13.2968,4.59973,2469.97,2020-2-14T04:07:04Z
2020-02-14T02:09:32Z,42.805,6.029,13.2969,4.59971,2470.007,2020-2-14T04:10:07Z
2020-02-14T02:12:36Z,42.805,6.029,13.2967,4.59973,2469.993,2020-2-14T04:13:10Z
2020-02-14T02:15:39Z,42.805,6.029,13.2968,4.59975,2469.984,2020-2-14T04:16:14Z
2020-02-14T02:18:42Z,42.805,6.029,13.2968,4.59974,2469.984,2020-2-14T04:19:17Z
2020-02-14T02:21:45Z,42.805,6.029,13.2971,4.59974,2469.947,2020-2-14T04:22:20Z
2020-02-14T02:24:49Z,42.805,6.029,13.2968,4.59971,2469.923,2020-2-14T04:25:23Z
2020-02-14T02:27:52Z,42.805,6.029,13.2966,4.59969,2469.97,2020-2-14T04:28:26Z
2020-02-14T02:30:55Z,42.805,6.029,13.2967,4.59970,2469.947,2020-2-14T04:31:30Z
2020-02-14T02:33:58Z,42.805,6.029,13.2964,4.59971,2469.97,2020-2-14T04:34:33Z
2020-02-14T02:37:01Z,42.805,6.029,13.2970,4.59971,2469.96,2020-2-14T04:37:36Z
2020-02-14T02:40:04Z,42.805,6.029,13.2964,4.59972,2469.923,2020-2-14T04:40:39Z
2020-02-14T02:43:08Z,42.805,6.029,13.2969,4.59971,2469.914,2020-2-14T04:43:42Z
2020-02-14T02:46:11Z,42.805,6.029,13.2967,4.59971,2469.923,2020-2-14T04:46:46Z
2020-02-14T02:49:14Z,42.805,6.029,13.2966,4.59971,2469.96,2020-2-14T04:49:49Z
2020-02-14T02:52:17Z,42.805,6.029,13.2967,4.59972,2469.984,2020-2-14T04:52:52Z
2020-02-14T02:55:20Z,42.805,6.029,13.2962,4.59973,2469.937,2020-2-14T04:55:55Z
2020-02-14T02:58:24Z,42.805,6.029,13.2963,4.59971,2469.984,2020-2-14T04:58:58Z
2020-02-14T03:01:27Z,42.805,6.029,13.2968,4.59971,2469.937,2020-2-14T05:02:02Z
2020-02-14T03:04:30Z,42.805,6.029,13.2968,4.59970,2469.947,2020-2-14T05:05:05Z
2020-02-14T03:07:33Z,42.805,6.029,13.2965,4.59971,2469.96,2020-2-14T05:08:08Z
2020-02-14T03:10:36Z,42.805,6.029,13.2970,4.59973,2469.96,2020-2-14T05:11:11Z
2020-02-14T03:13:40Z,42.805,6.029,13.2970,4.59973,2469.947,2020-2-14T05:14:14Z
2020-02-14T03:16:43Z,42.805,6.029,13.2968,4.59970,2469.937,2020-2-14T05:17:18Z
2020-02-14T03:19:46Z,42.805,6.029,13.2968,4.59970,2469.947,2020-2-14T05:20:21Z
2020-02-14T03:22:49Z,42.805,6.029,13.2967,4.59969,2469.923,2020-2-14T05:23:24Z
2020-02-14T03:25:52Z,42.805,6.029,13.2966,4.59972,2469.9,2020-2-14T05:26:27Z
2020-02-14T03:28:55Z,42.805,6.029,13.2968,4.59972,2469.923,2020-2-14T05:29:30Z
2020-02-14T03:31:59Z,42.805,6.029,13.2968,4.59970,2469.914,2020-2-14T05:32:33Z
2020-02-14T03:35:02Z,42.805,6.029,13.2968,4.59971,2469.937,2020-2-14T05:35:37Z
2020-02-14T03:38:05Z,42.805,6.029,13.2967,4.59970,2469.947,2020-2-14T05:38:40Z
2020-02-14T03:41:08Z,42.805,6.029,13.2968,4.59971,2469.9,2020-2-14T05:41:43Z
2020-02-14T03:44:11Z,42.805,6.029,13.2968,4.59971,2469.923,2020-2-14T05:44:46Z
2020-02-14T03:47:15Z,42.805,6.029,13.2966,4.59971,2469.937,2020-2-14T05:47:49Z
2020-02-14T03:50:18Z,42.805,6.029,13.2966,4.59971,2469.914,2020-2-14T05:50:53Z
2020-02-14T03:53:21Z,42.805,6.029,13.2968,4.59969,2469.923,2020-2-14T05:53:56Z
2020-02-14T03:56:24Z,42.805,6.029,13.2968,4.59971,2469.9,2020-2-14T05:56:59Z
2020-02-14T03:59:27Z,42.805,6.029,13.2972,4.59970,2469.937,2020-2-14T06:00:02Z
2020-02-14T04:02:31Z,42.805,6.029,13.2967,4.59969,2469.914,2020-2-14T06:03:05Z
2020-02-14T04:05:34Z,42.805,6.029,13.2967,4.59971,2469.9,2020-2-14T06:06:08Z
2020-02-14T04:08:37Z,42.805,6.029,13.2971,4.59971,2469.914,2020-2-14T06:09:12Z
2020-02-14T04:11:40Z,42.805,6.029,13.2965,4.59971,2469.876,2020-2-14T06:12:15Z
2020-02-14T04:14:43Z,42.805,6.029,13.2971,4.59970,2469.876,2020-2-14T06:15:18Z
2020-02-14T04:17:47Z,42.805,6.029,13.2967,4.59968,2469.923,2020-2-14T06:18:21Z
2020-02-14T04:20:50Z,42.805,6.029,13.2966,4.59969,2469.89,2020-2-14T06:21:24Z
2020-02-14T04:23:53Z,42.805,6.029,13.2967,4.59969,2469.89,2020-2-14T06:24:28Z
2020-02-14T04:26:56Z,42.805,6.029,13.2966,4.59969,2469.914,2020-2-14T06:27:31Z
2020-02-14T04:29:59Z,42.805,6.029,13.2968,4.59970,2469.914,2020-2-14T06:30:34Z
2020-02-14T04:33:02Z,42.805,6.029,13.2969,4.59973,2469.914,2020-2-14T06:33:37Z
2020-02-14T04:36:06Z,42.805,6.029,13.2970,4.59969,2469.937,2020-2-14T06:36:40Z
2020-02-14T04:39:09Z,42.805,6.029,13.2968,4.59968,2469.914,2020-2-14T06:39:44Z
2020-02-14T04:42:12Z,42.805,6.029,13.2968,4.59972,2469.853,2020-2-14T06:42:47Z
2020-02-14T04:45:15Z,42.805,6.029,13.2967,4.59970,2469.89,2020-2-14T06:45:50Z
2020-02-14T04:48:18Z,42.805,6.029,13.2967,4.59969,2469.923,2020-2-14T06:48:53Z
2020-02-14T04:51:22Z,42.805,6.029,13.2968,4.59969,2469.9,2020-2-14T06:51:56Z
2020-02-14T04:54:25Z,42.805,6.029,13.2965,4.59971,2469.9,2020-2-14T06:55:00Z
2020-02-14T04:57:28Z,42.805,6.029,13.2970,4.59971,2469.9,2020-2-14T06:58:03Z
2020-02-14T05:00:31Z,42.805,6.029,13.2967,4.59971,2469.876,2020-2-14T07:01:06Z
2020-02-14T05:03:34Z,42.805,6.029,13.2968,4.59970,2469.923,2020-2-14T07:04:09Z
2020-02-14T05:06:38Z,42.805,6.029,13.2968,4.59970,2469.853,2020-2-14T07:07:12Z
2020-02-14T05:09:41Z,42.805,6.029,13.2967,4.59969,2469.9,2020-2-14T07:10:16Z
2020-02-14T05:12:44Z,42.805,6.029,13.2968,4.59970,2469.876,2020-2-14T07:13:19Z
2020-02-14T05:15:47Z,42.805,6.029,13.2971,4.59969,2469.89,2020-2-14T07:16:22Z
2020-02-14T05:18:50Z,42.805,6.029,13.2971,4.59969,2469.876,2020-2-14T07:19:25Z
2020-02-14T05:21:54Z,42.805,6.029,13.2971,4.59969,2469.914,2020-2-14T07:22:28Z
2020-02-14T05:24:57Z,42.805,6.029,13.2967,4.59970,2469.853,2020-2-14T07:25:32Z
2020-02-14T05:28:00Z,42.805,6.029,13.2968,4.59973,2469.89,2020-2-14T07:28:35Z
2020-02-14T05:31:03Z,42.805,6.029,13.2968,4.59970,2469.876,2020-2-14T07:31:38Z
2020-02-14T05:34:06Z,42.805,6.029,13.2967,4.59970,2469.9,2020-2-14T07:34:41Z
2020-02-14T05:37:09Z,42.805,6.029,13.2967,4.59972,2469.876,2020-2-14T07:37:44Z
2020-02-14T05:40:13Z,42.805,6.029,13.2969,4.59970,2469.914,2020-2-14T07:40:47Z
2020-02-14T05:43:16Z,42.805,6.029,13.2968,4.59971,2469.9,2020-2-14T07:43:51Z
2020-02-14T05:46:19Z,42.805,6.029,13.2969,4.59969,2469.9,2020-2-14T07:46:54Z
2020-02-14T05:49:22Z,42.805,6.029,13.2971,4.59970,2469.886,2020-2-14T07:49:57Z
2020-02-14T05:52:25Z,42.805,6.029,13.2970,4.59972,2469.9,2020-2-14T07:53:00Z
2020-02-14T05:55:29Z,42.805,6.029,13.2968,4.59970,2469.914,2020-2-14T07:56:03Z
2020-02-14T05:58:32Z,42.805,6.029,13.2971,4.59971,2469.876,2020-2-14T07:59:07Z
2020-02-14T06:01:35Z,42.805,6.029,13.2967,4.59972,2469.853,2020-2-14T08:02:10Z
2020-02-14T06:04:38Z,42.805,6.029,13.2967,4.59969,2469.914,2020-2-14T08:05:13Z
2020-02-14T06:07:41Z,42.805,6.029,13.2970,4.59970,2469.923,2020-2-14T08:08:16Z
2020-02-14T06:10:45Z,42.805,6.029,13.2966,4.59970,2469.9,2020-2-14T08:11:19Z
2020-02-14T06:13:48Z,42.805,6.029,13.2965,4.59970,2469.89,2020-2-14T08:14:23Z
2020-02-14T06:16:51Z,42.805,6.029,13.2968,4.59970,2469.9,2020-2-14T08:17:26Z
2020-02-14T06:19:54Z,42.805,6.029,13.2966,4.59968,2469.914,2020-2-14T08:20:29Z
2020-02-14T06:22:57Z,42.805,6.029,13.2967,4.59972,2469.937,2020-2-14T08:23:32Z
2020-02-14T06:26:01Z,42.805,6.029,13.2968,4.59970,2469.9,2020-2-14T08:26:35Z
2020-02-14T06:29:04Z,42.805,6.029,13.2964,4.59969,2469.909,2020-2-14T08:29:39Z
2020-02-14T06:32:07Z,42.805,6.029,13.2967,4.59969,2469.923,2020-2-14T08:32:42Z
2020-02-14T06:35:10Z,42.805,6.029,13.2969,4.59971,2469.914,2020-2-14T08:35:45Z
2020-02-14T06:38:13Z,42.805,6.029,13.2971,4.59971,2469.9,2020-2-14T08:38:48Z
2020-02-14T06:41:16Z,42.805,6.029,13.2966,4.59970,2469.914,2020-2-14T08:41:51Z
2020-02-14T06:44:20Z,42.805,6.029,13.2968,4.59970,2469.923,2020-2-14T08:44:54Z
2020-02-14T06:47:23Z,42.805,6.029,13.2967,4.59969,2469.97,2020-2-14T08:47:58Z
2020-02-14T06:50:26Z,42.805,6.029,13.2968,4.59971,2469.923,2020-2-14T08:51:01Z
2020-02-14T06:53:29Z,42.805,6.029,13.2969,4.59970,2469.947,2020-2-14T08:54:04Z
2020-02-14T06:56:32Z,42.805,6.029,13.2965,4.59971,2469.937,2020-2-14T08:57:07Z
2020-02-14T06:59:36Z,42.805,6.029,13.2969,4.59971,2469.937,2020-2-14T09:00:11Z
2020-02-14T07:02:39Z,42.805,6.029,13.2969,4.59971,2469.947,2020-2-14T09:03:14Z
2020-02-14T07:05:42Z,42.805,6.029,13.2968,4.59971,2469.937,2020-2-14T09:06:17Z
2020-02-14T07:08:45Z,42.805,6.029,13.2968,4.59971,2469.923,2020-2-14T09:09:20Z
2020-02-14T07:11:48Z,42.805,6.029,13.2968,4.59973,2469.937,2020-2-14T09:12:23Z
2020-02-14T07:14:52Z,42.805,6.029,13.2969,4.59972,2469.937,2020-2-14T09:15:27Z
2020-02-14T07:17:55Z,42.805,6.029,13.2968,4.59971,2469.947,2020-2-14T09:18:30Z
2020-02-14T07:20:58Z,42.805,6.029,13.2965,4.59971,2469.923,2020-2-14T09:21:33Z
2020-02-14T07:24:01Z,42.805,6.029,13.2968,4.59971,2469.923,2020-2-14T09:24:36Z
2020-02-14T07:27:05Z,42.805,6.029,13.2972,4.59969,2469.96,2020-2-14T09:27:39Z
2020-02-14T07:30:08Z,42.805,6.029,13.2968,4.59971,2469.993,2020-2-14T09:30:43Z
2020-02-14T07:33:11Z,42.805,6.029,13.2969,4.59971,2469.956,2020-2-14T09:33:46Z
2020-02-14T07:36:15Z,42.805,6.029,13.2969,4.59973,2469.984,2020-2-14T09:36:49Z
2020-02-14T07:39:18Z,42.805,6.029,13.2971,4.59971,2469.993,2020-2-14T09:39:53Z
2020-02-14T07:42:21Z,42.805,6.029,13.2968,4.59975,2469.993,2020-2-14T09:42:56Z
2020-02-14T07:45:24Z,42.805,6.029,13.2971,4.59973,2470.007,2020-2-14T09:45:59Z
2020-02-14T07:48:27Z,42.805,6.029,13.2967,4.59973,2469.984,2020-2-14T09:49:02Z
2020-02-14T07:51:31Z,42.805,6.029,13.2968,4.59972,2469.993,2020-2-14T09:52:05Z
2020-02-14T07:54:34Z,42.805,6.029,13.2964,4.59973,2469.993,2020-2-14T09:55:09Z
2020-02-14T07:57:37Z,42.805,6.029,13.2973,4.59974,2469.993,2020-2-14T09:58:12Z
2020-02-14T08:00:40Z,42.805,6.029,13.2967,4.59975,2469.993,2020-2-14T10:01:15Z
2020-02-14T08:03:43Z,42.805,6.029,13.2968,4.59975,2469.984,2020-2-14T10:04:18Z
2020-02-14T08:06:46Z,42.805,6.029,13.2970,4.59973,2470.03,2020-2-14T10:07:21Z
2020-02-14T08:09:50Z,42.805,6.029,13.2968,4.59972,2470.017,2020-2-14T10:10:24Z
2020-02-14T08:12:53Z,42.805,6.029,13.2969,4.59973,2469.993,2020-2-14T10:13:28Z
2020-02-14T08:15:56Z,42.805,6.029,13.2969,4.59971,2469.993,2020-2-14T10:16:31Z
2020-02-14T08:18:59Z,42.805,6.029,13.2968,4.59973,2469.97,2020-2-14T10:19:34Z
2020-02-14T08:22:02Z,42.805,6.029,13.2968,4.59973,2470.017,2020-2-14T10:22:37Z
2020-02-14T08:25:06Z,42.805,6.029,13.2965,4.59971,2470.04,2020-2-14T10:25:40Z
2020-02-14T08:28:09Z,42.805,6.029,13.2968,4.59970,2470.017,2020-2-14T10:28:44Z
2020-02-14T08:31:12Z,42.805,6.029,13.2969,4.59974,2470.017,2020-2-14T10:31:47Z
2020-02-14T08:34:15Z,42.805,6.029,13.2971,4.59971,2470.007,2020-2-14T10:34:50Z
2020-02-14T08:37:19Z,42.805,6.029,13.2964,4.59974,2470.017,2020-2-14T10:37:53Z
2020-02-14T08:40:22Z,42.805,6.029,13.2966,4.59971,2470.077,2020-2-14T10:40:57Z
2020-02-14T08:43:25Z,42.805,6.029,13.2970,4.59972,2470.04,2020-2-14T10:44:00Z
2020-02-14T08:46:28Z,42.805,6.029,13.2970,4.59972,2470.007,2020-2-14T10:47:03Z
2020-02-14T08:49:31Z,42.805,6.029,13.2967,4.59973,2470.03,2020-2-14T10:50:06Z
2020-02-14T08:52:34Z,42.805,6.029,13.2970,4.59972,2470.017,2020-2-14T10:53:09Z
2020-02-14T08:55:38Z,42.805,6.029,13.2964,4.59971,2470.063,2020-2-14T10:56:12Z
2020-02-14T08:58:41Z,42.805,6.029,13.2970,4.59970,2470.017,2020-2-14T10:59:16Z
2020-02-14T09:01:44Z,42.805,6.029,13.2968,4.59971,2470.053,2020-2-14T11:02:19Z
2020-02-14T09:04:47Z,42.805,6.029,13.2968,4.59972,2470.04,2020-2-14T11:05:22Z
2020-02-14T09:07:50Z,42.805,6.029,13.2967,4.59970,2470.04,2020-2-14T11:08:25Z
2020-02-14T09:10:54Z,42.805,6.029,13.2966,4.59971,2470.077,2020-2-14T11:11:28Z
2020-02-14T09:13:57Z,42.805,6.029,13.2970,4.59972,2470.04,2020-2-14T11:14:32Z
2020-02-14T09:17:00Z,42.805,6.029,13.2968,4.59973,2470.04,2020-2-14T11:17:35Z
2020-02-14T09:20:03Z,42.805,6.029,13.2973,4.59972,2470.1,2020-2-14T11:20:38Z
2020-02-14T09:23:06Z,42.805,6.029,13.2970,4.59973,2470.053,2020-2-14T11:23:41Z
2020-02-14T09:26:10Z,42.805,6.029,13.2967,4.59978,2470.087,2020-2-14T11:26:44Z
2020-02-14T09:29:13Z,42.805,6.029,13.2968,4.59973,2470.087,2020-2-14T11:29:48Z
2020-02-14T09:32:16Z,42.805,6.029,13.2970,4.59973,2470.124,2020-2-14T11:32:51Z
2020-02-14T09:35:19Z,42.805,6.029,13.2970,4.59973,2470.087,2020-2-14T11:35:54Z
2020-02-14T09:38:22Z,42.805,6.029,13.2967,4.59973,2470.087,2020-2-14T11:38:57Z
2020-02-14T09:41:26Z,42.805,6.029,13.2969,4.59973,2470.087,2020-2-14T11:42:00Z
2020-02-14T09:44:29Z,42.805,6.029,13.2972,4.59973,2470.11,2020-2-14T11:45:04Z
2020-02-14T09:47:32Z,42.805,6.029,13.2965,4.59973,2470.077,2020-2-14T11:48:07Z
2020-02-14T09:50:35Z,42.805,6.029,13.2969,4.59971,2470.11,2020-2-14T11:51:10Z
2020-02-14T09:53:38Z,42.805,6.029,13.2969,4.59971,2470.087,2020-2-14T11:54:13Z
2020-02-14T09:56:42Z,42.805,6.029,13.2966,4.59969,2470.087,2020-2-14T11:57:16Z
2020-02-14T09:59:45Z,42.805,6.029,13.2968,4.59968,2470.11,2020-2-14T12:00:20Z
2020-02-14T10:02:48Z,42.805,6.029,13.2966,4.59972,2470.063,2020-2-14T12:03:23Z
2020-02-14T10:05:51Z,42.805,6.029,13.2966,4.59971,2470.11,2020-2-14T12:06:26Z
2020-02-14T10:08:55Z,42.805,6.029,13.2968,4.59971,2470.087,2020-2-14T12:09:29Z
2020-02-14T10:11:58Z,42.805,6.029,13.2969,4.59972,2470.087,2020-2-14T12:12:33Z
2020-02-14T10:15:01Z,42.805,6.029,13.2970,4.59970,2470.11,2020-2-14T12:15:36Z
2020-02-14T10:18:04Z,42.805,6.029,13.2971,4.59970,2470.077,2020-2-14T12:18:39Z
2020-02-14T10:21:07Z,42.805,6.029,13.2968,4.59971,2470.133,2020-2-14T12:21:42Z
2020-02-14T10:24:11Z,42.805,6.029,13.2967,4.59970,2470.11,2020-2-14T12:24:45Z
2020-02-14T10:27:14Z,42.805,6.029,13.2971,4.59971,2470.133,2020-2-14T12:27:49Z
2020-02-14T10:30:17Z,42.805,6.029,13.2967,4.59969,2470.1,2020-2-14T12:30:52Z
2020-02-14T10:33:21Z,42.805,6.029,13.2968,4.59975,2470.133,2020-2-14T12:33:55Z
2020-02-14T10:36:24Z,42.805,6.029,13.2966,4.59973,2470.11,2020-2-14T12:36:59Z
2020-02-14T10:39:27Z,42.805,6.029,13.2968,4.59969,2470.147,2020-2-14T12:40:02Z
2020-02-14T10:42:30Z,42.805,6.029,13.2970,4.59976,2470.133,2020-2-14T12:43:05Z
2020-02-14T10:45:33Z,42.805,6.029,13.2964,4.59973,2470.1,2020-2-14T12:46:08Z
2020-02-14T10:48:37Z,42.805,6.029,13.2967,4.59973,2470.133,2020-2-14T12:49:11Z
2020-02-14T10:51:40Z,42.805,6.029,13.2968,4.59969,2470.124,2020-2-14T12:52:15Z
2020-02-14T10:54:43Z,42.805,6.029,13.2965,4.59973,2470.087,2020-2-14T12:55:18Z
2020-02-14T10:57:47Z,42.805,6.029,13.2967,4.59972,2470.133,2020-2-14T12:58:21Z
2020-02-14T11:00:50Z,42.805,6.029,13.2967,4.59968,2470.087,2020-2-14T13:01:25Z
2020-02-14T11:03:53Z,42.805,6.029,13.2964,4.59969,2470.133,2020-2-14T13:04:28Z
2020-02-14T11:06:56Z,42.805,6.029,13.2968,4.59969,2470.096,2020-2-14T13:07:31Z
2020-02-14T11:10:00Z,42.805,6.029,13.2967,4.59973,2470.124,2020-2-14T13:10:34Z
2020-02-14T11:13:03Z,42.805,6.029,13.2968,4.59968,2470.133,2020-2-14T13:13:37Z
2020-02-14T11:16:06Z,42.805,6.029,13.2967,4.59969,2470.133,2020-2-14T13:16:41Z
2020-02-14T11:19:09Z,42.805,6.029,13.2967,4.59969,2470.1,2020-2-14T13:19:44Z
2020-02-14T11:22:12Z,42.805,6.029,13.2968,4.59970,2470.087,2020-2-14T13:22:47Z
2020-02-14T11:25:16Z,42.805,6.029,13.2964,4.59968,2470.1,2020-2-14T13:25:50Z
2020-02-14T11:28:19Z,42.805,6.029,13.2968,4.59976,2470.1,2020-2-14T13:28:54Z
2020-02-14T11:31:22Z,42.805,6.029,13.2964,4.59972,2470.1,2020-2-14T13:31:57Z
2020-02-14T11:34:25Z,42.805,6.029,13.2966,4.59968,2470.04,2020-2-14T13:35:00Z
2020-02-14T11:37:28Z,42.805,6.029,13.2967,4.59971,2470.133,2020-2-14T13:38:03Z
2020-02-14T11:40:32Z,42.805,6.029,13.2969,4.59986,2470.077,2020-2-14T13:41:06Z
2020-02-14T11:43:35Z,42.805,6.029,13.2966,4.59981,2470.11,2020-2-14T13:44:10Z
2020-02-14T11:46:38Z,42.805,6.029,13.2967,4.59980,2470.087,2020-2-14T13:47:13Z
2020-02-14T11:49:41Z,42.805,6.029,13.2967,4.59981,2470.1,2020-2-14T13:50:16Z
2020-02-14T11:52:44Z,42.805,6.029,13.2968,4.59979,2470.087,2020-2-14T13:53:19Z
2020-02-14T11:55:48Z,42.805,6.029,13.2969,4.59978,2470.087,2020-2-14T13:56:22Z
2020-02-14T11:58:51Z,42.805,6.029,13.2971,4.59976,2470.11,2020-2-14T13:59:26Z
2020-02-14T12:01:54Z,42.805,6.029,13.2969,4.59970,2470.1,2020-2-14T14:02:29Z
2020-02-14T12:04:57Z,42.805,6.029,13.2970,4.59973,2470.077,2020-2-14T14:05:32Z
2020-02-14T12:08:00Z,42.805,6.029,13.2968,4.59980,2470.063,2020-2-14T14:08:35Z
2020-02-14T12:11:04Z,42.805,6.029,13.2968,4.59973,2470.087,2020-2-14T14:11:38Z
2020-02-14T12:14:07Z,42.805,6.029,13.2968,4.59973,2470.04,2020-2-14T14:14:42Z
2020-02-14T12:17:10Z,42.805,6.029,13.2970,4.59981,2470.1,2020-2-14T14:17:45Z
2020-02-14T12:20:13Z,42.805,6.029,13.2968,4.59971,2470.077,2020-2-14T14:20:48Z
2020-02-14T12:23:16Z,42.805,6.029,13.2964,4.59973,2470.063,2020-2-14T14:23:51Z
2020-02-14T12:26:20Z,42.805,6.029,13.2967,4.59971,2470.053,2020-2-14T14:26:54Z
2020-02-14T12:29:23Z,42.805,6.029,13.2966,4.59973,2470.077,2020-2-14T14:29:58Z
2020-02-14T12:32:26Z,42.805,6.029,13.2969,4.59974,2470.077,2020-2-14T14:33:01Z
2020-02-14T12:35:29Z,42.805,6.029,13.2968,4.59995,2470.077,2020-2-14T14:36:04Z
2020-02-14T12:38:32Z,42.805,6.029,13.2968,4.59976,2470.063,2020-2-14T14:39:07Z
2020-02-14T12:41:36Z,42.805,6.029,13.2966,4.59981,2470.053,2020-2-14T14:42:11Z
2020-02-14T12:44:39Z,42.805,6.029,13.2972,4.59973,2470.063,2020-2-14T14:45:14Z
2020-02-14T12:47:42Z,42.805,6.029,13.2968,4.59981,2470.063,2020-2-14T14:48:17Z
2020-02-14T12:50:45Z,42.805,6.029,13.2968,4.59971,2470.03,2020-2-14T14:51:20Z
2020-02-14T12:53:49Z,42.805,6.029,13.2968,4.59989,2470.063,2020-2-14T14:54:23Z
2020-02-14T12:56:52Z,42.805,6.029,13.2968,4.59973,2470.077,2020-2-14T14:57:27Z
2020-02-14T12:59:55Z,42.805,6.029,13.2971,4.59986,2470.053,2020-2-14T15:00:30Z
2020-02-14T13:02:58Z,42.805,6.029,13.2968,4.59985,2470.077,2020-2-14T15:03:33Z
2020-02-14T13:06:01Z,42.805,6.029,13.2968,4.59984,2470.017,2020-2-14T15:06:36Z
2020-02-14T13:09:05Z,42.805,6.029,13.2971,4.59972,2470.017,2020-2-14T15:09:40Z
2020-02-14T13:12:08Z,42.805,6.029,13.2967,4.59983,2470.017,2020-2-14T15:12:43Z
2020-02-14T13:15:11Z,42.805,6.029,13.2968,4.59977,2470.03,2020-2-14T15:15:46Z
2020-02-14T13:18:14Z,42.805,6.029,13.2966,4.59972,2470.04,2020-2-14T15:18:49Z
2020-02-14T13:21:17Z,42.805,6.029,13.2967,4.59974,2470.04,2020-2-14T15:21:52Z
2020-02-14T13:24:21Z,42.805,6.029,13.2968,4.59974,2470.017,2020-2-14T15:24:55Z
2020-02-14T13:27:24Z,42.805,6.029,13.2968,4.59983,2470.04,2020-2-14T15:27:59Z
2020-02-14T13:30:27Z,42.805,6.029,13.2969,4.59979,2470.077,2020-2-14T15:31:02Z
2020-02-14T13:33:30Z,42.805,6.029,13.2967,4.59988,2470.017,2020-2-14T15:34:05Z
2020-02-14T13:36:34Z,42.805,6.029,13.2970,4.59983,2470.017,2020-2-14T15:37:08Z
2020-02-14T13:39:37Z,42.805,6.029,13.2967,4.59979,2470.077,2020-2-14T15:40:12Z
2020-02-14T13:42:40Z,42.805,6.029,13.2967,4.59971,2470.03,2020-2-14T15:43:15Z
2020-02-14T13:45:43Z,42.805,6.029,13.2969,4.59972,2470.007,2020-2-14T15:46:18Z
2020-02-14T13:48:46Z,42.805,6.029,13.2971,4.59971,2470.017,2020-2-14T15:49:21Z
2020-02-14T13:51:50Z,42.805,6.029,13.2973,4.59976,2470.007,2020-2-14T15:52:24Z
2020-02-14T13:54:53Z,42.805,6.029,13.2970,4.59973,2470.007,2020-2-14T15:55:28Z
2020-02-14T13:57:56Z,42.805,6.029,13.2968,4.59976,2470.04,2020-2-14T15:58:31Z
2020-02-14T14:00:59Z,42.805,6.029,13.2970,4.59978,2470.03,2020-2-14T16:01:34Z
2020-02-14T14:04:02Z,42.805,6.029,13.2968,4.59988,2470.03,2020-2-14T16:04:37Z
2020-02-14T14:07:06Z,42.805,6.029,13.2970,4.59982,2470.017,2020-2-14T16:07:40Z
2020-02-14T14:10:09Z,42.805,6.029,13.2973,4.59993,2469.993,2020-2-14T16:10:44Z
2020-02-14T14:13:12Z,42.805,6.029,13.2966,4.59979,2469.993,2020-2-14T16:13:47Z
2020-02-14T14:16:15Z,42.805,6.029,13.2970,4.59991,2469.993,2020-2-14T16:16:50Z
2020-02-14T14:19:18Z,42.805,6.029,13.2968,4.59983,2469.97,2020-2-14T16:19:53Z
2020-02-14T14:22:22Z,42.805,6.029,13.2971,4.59996,2470.017,2020-2-14T16:22:56Z
2020-02-14T14:25:25Z,42.805,6.029,13.2968,4.60008,2470.007,2020-2-14T16:26:00Z
2020-02-14T14:28:28Z,42.805,6.029,13.2970,4.60011,2469.97,2020-2-14T16:29:03Z
2020-02-14T14:31:31Z,42.805,6.029,13.2967,4.59999,2469.993,2020-2-14T16:32:06Z
2020-02-14T14:34:34Z,42.805,6.029,13.2970,4.60001,2469.947,2020-2-14T16:35:09Z
2020-02-14T14:37:38Z,42.805,6.029,13.2969,4.60001,2469.993,2020-2-14T16:38:12Z
2020-02-14T14:40:41Z,42.805,6.029,13.2970,4.59993,2469.993,2020-2-14T16:41:16Z
2020-02-14T14:43:44Z,42.805,6.029,13.2972,4.59996,2469.993,2020-2-14T16:44:19Z
2020-02-14T14:46:47Z,42.805,6.029,13.2966,4.59993,2469.947,2020-2-14T16:47:22Z
2020-02-14T14:49:50Z,42.805,6.029,13.2966,4.59994,2469.947,2020-2-14T16:50:25Z
2020-02-14T14:52:54Z,42.805,6.029,13.2968,4.59997,2470.017,2020-2-14T16:53:28Z
2020-02-14T14:55:57Z,42.805,6.029,13.2967,4.60019,2469.984,2020-2-14T16:56:32Z
2020-02-14T14:59:00Z,42.805,6.029,13.2968,4.60003,2469.97,2020-2-14T16:59:35Z
2020-02-14T15:02:03Z,42.805,6.029,13.2969,4.60006,2470.007,2020-2-14T17:02:38Z
2020-02-14T15:05:06Z,42.805,6.029,13.2971,4.60010,2469.923,2020-2-14T17:05:41Z
2020-02-14T15:08:10Z,42.805,6.029,13.2970,4.60031,2469.984,2020-2-14T17:08:44Z
2020-02-14T15:11:13Z,42.805,6.029,13.2968,4.60044,2469.993,2020-2-14T17:11:48Z
2020-02-14T15:14:16Z,42.805,6.029,13.2965,4.60046,2469.97,2020-2-14T17:14:51Z